sat.trackr.live / text

‹ back to catalog

STARLINK-34161

NORAD 64017 · 2025-101Z

PAYLOAD ACTIVE UNKNOWN

§ Identity

Operator
Country
US
Launch date
2025-05-14
Launch site
AFETR
Launch vehicle
Mass (kg)
RCS (m²)

Purposes: comms

External: N2YO · Heavens-Above · Gunter

§ Orbital elements

Epoch: 2026-05-25T02:31:58.174752Z

Period
94.27 min
Inclination
42.9941°
Eccentricity
0.0001810
Mean motion
15.27588698 rev/d
Perigee alt
481.8 km
Apogee alt
484.3 km
Semi-major
6,861.2 km
B*
4.3176e-4
RAAN
286.2655°
Arg perigee
269.5226°
Mean anomaly
90.5419°
Rev number
5,874

§ Raw data

STARLINK-341611 64017U 25101Z   26145.10553443  .00011641  00000+0  43176-3 0  99962 64017  42.9941 286.2655 0001810 269.5226  90.5419 15.27588698 58746

JSON: /api/v1/satellites/64017 · /tle

For live sub-satellite position, see the globe view (requires WebGL).

§ Visibility from observer

Set your observer location to see the next 7 days of passes ≥ 10°. The values pass through the URL so the page stays shareable.

No JS? Fill the form by hand. The geolocation button needs JavaScript.